STARLINK-33926, 64147

Orbit data source: Space-Track

STARLINK-33926, 64147 is a payload satellite owned by SpaceX/Seattle (US) in SSO that was launched on Tue, 27 May 2025 UTC via an FALCON 9 launch vehicle from the Air Force Western Test Range (AFWTR). Payload-class satellites include a variety of spacecraft equipped with specific instruments for various scientific and technological missions. These include communications satellites like Starlink; space stations such as the ISS; scientific satellites like the Hubble; Earth observation satellites from companies like Planet Labs, Umbra, and HawkEye 360; GPS; miniature CubeSats for education and research; and military/defense satellites.

Loading next visibility...
Identifier
64147, 2025-112B
Orbit
SSO
Country
Flag of USUS
Related business
Manufacturer
SpaceX/Seattle
Mission
Operational Commercial Communications
Bus & Motor
STARLINK V2MO, Unknown motor
Mass
575 kg wet, ~530 kg dry
Launch date (UTC)
2025-05-27 (1 year ago)
Launch vehicle
FALCON 9
Launch site
Air Force Western Test Range (AFWTR)
Object type
Payload
Rocket body
Debris
Shape & HBR
Box + 2 Pan, 17.7 m
Radar Cross Section
36.964 m², Large (>1 m²)

Expand to show TLE details & history
Last TLE update: 8 hours ago

TLE from 8 hours ago
0 STARLINK-33926
1 64147U 25112B   26145.40336434  .00004081  00000-0  28669-3 0  9995
2 64147  97.4466 196.7923 0001267 104.8008 255.3360 15.05655781 54853
Epoch: 2026-05-25T09:40Z
TLE epoch observation values (Epoch: 2026-05-25T09:40:50.678Z)
Latitude
-0.00002°
Longitude
168.58949°
Altitude
552.785 km
Speed
7.585 km/s
True Right ascension
13h 07m 10s
True Declination
0° 00' 00"
Sunlit
Object was in full shadow at epoch
Visualization orbit readout
Latitude
Unknown
Longitude
Unknown
Altitude
Unknown
Speed
Unknown
Apparent Right ascension
Unknown
Apparent Declination
Unknown
Sunlit
N/A
Visualization observer readout
Local Sidereal Time
02:48:32
Azimuth
Unknown
Elevation
Unknown
Doppler factor
Unknown
Orbital elements
Apogee altitude
547.357 km
Perigee altitude
545.603 km
Semi-major axis
6,924.617 km
Eccentricity
0.00013
Inclination
97.4466°
RAAN
196.7923°
Arg. of periapsis
104.8008°
True anomaly
255.32195°
Mean anomaly
255.336°
Eccentric anomaly
255.32898°
Mean motion
3.7666 °/min
Orbital period
95.58 mins
BSTAR
0.00028669
Loading maneuver chart data...
Computing Atmospheric mass density...
Loading historical data...
Loading historical data...
Loading historical data...
Loading historical data...
Loading historical data...
Loading historical data...
Loading historical data...

Documentation

Showing up to 5 results
|